Wolke Sonne

Wetter Ammerndorf

Gehe zu: Roßtal

Tageswerte vom Samstag, 05.03.2022

Optionen

Tag:
Erweitert:

Alle Werte vom Samstag, 05.03.2022

Einen Moment bitte, die Daten werden aufbereitet...

UhrzeitTemperaturBoden 10cmBoden 20cmFeuchteLuftdruckNiederschlagEvapotranspirationWindWindböenWindrichtungSolarstrahlungUV-IndexSonne?Uhrzeit
Diagramm IconDiagramm IconDiagramm IconDiagramm IconDiagramm IconDiagramm IconDiagramm IconDiagramm IconDiagramm IconDiagramm IconDiagramm IconDiagramm IconDiagramm Icon
00:00-4,5 °C 2,2 °C 2,8 °C 89 % 1024,8 hPa 0,0 mm - 0,0 km/h 0,0 km/h NO 0,0 W/qm 0,0 nein 00:00
00:05-4,4 °C 2,2 °C 2,8 °C 89 % 1024,8 hPa 0,0 mm 0,0 mm 0,0 km/h 0,0 km/h NO 0,0 W/qm 0,0 nein 00:05
00:10-4,5 °C 2,2 °C 2,8 °C 89 % 1024,9 hPa 0,0 mm 0,0 mm 0,0 km/h 0,0 km/h NO 0,0 W/qm 0,0 nein 00:10
00:15-4,6 °C 2,2 °C 2,8 °C 89 % 1024,8 hPa 0,0 mm - 0,0 km/h 0,0 km/h NO 0,0 W/qm 0,0 nein 00:15
00:20-4,6 °C 2,2 °C 2,8 °C 89 % 1024,8 hPa 0,0 mm - 0,0 km/h 0,0 km/h NO 0,0 W/qm 0,0 nein 00:20
00:25-4,5 °C 2,2 °C 2,8 °C 89 % 1024,9 hPa 0,0 mm - 0,0 km/h 0,0 km/h NO 0,0 W/qm 0,0 nein 00:25
00:30-4,7 °C 2,2 °C 2,8 °C 89 % 1024,8 hPa 0,0 mm - 0,0 km/h 0,0 km/h NO 0,0 W/qm 0,0 nein 00:30
00:35-4,8 °C 2,2 °C 2,8 °C 89 % 1024,8 hPa 0,0 mm - 0,0 km/h 0,0 km/h NO 0,0 W/qm 0,0 nein 00:35
00:40-4,9 °C 2,2 °C 2,8 °C 89 % 1024,9 hPa 0,0 mm - 0,0 km/h 0,0 km/h NO 0,0 W/qm 0,0 nein 00:40
00:45-4,9 °C 2,2 °C 2,8 °C 89 % 1024,7 hPa 0,0 mm - 0,0 km/h 0,0 km/h NO 0,0 W/qm 0,0 nein 00:45
00:50-4,9 °C 2,2 °C 2,8 °C 89 % 1024,9 hPa 0,0 mm - 0,0 km/h 0,0 km/h NO 0,0 W/qm 0,0 nein 00:50
00:55-4,9 °C 2,2 °C 2,8 °C 89 % 1025,0 hPa 0,0 mm - 0,0 km/h 0,0 km/h NO 0,0 W/qm 0,0 nein 00:55
01:00-4,9 °C 2,2 °C 2,8 °C 89 % 1024,9 hPa 0,0 mm - 0,0 km/h 0,0 km/h NO 0,0 W/qm 0,0 nein 01:00
01:05-4,9 °C 2,2 °C 2,8 °C 90 % 1025,0 hPa 0,0 mm 0,0 mm 0,0 km/h 0,0 km/h NO 0,0 W/qm 0,0 nein 01:05
01:10-4,9 °C 2,2 °C 2,8 °C 90 % 1024,9 hPa 0,0 mm 0,0 mm 0,0 km/h 0,0 km/h NO 0,0 W/qm 0,0 nein 01:10
01:15-4,9 °C 2,2 °C 2,8 °C 90 % 1024,9 hPa 0,0 mm - 0,0 km/h 0,0 km/h NO 0,0 W/qm 0,0 nein 01:15
01:20-4,9 °C 2,2 °C 2,8 °C 90 % 1024,9 hPa 0,0 mm - 0,0 km/h 0,0 km/h NO 0,0 W/qm 0,0 nein 01:20
01:25-4,9 °C 2,2 °C 2,8 °C 90 % 1024,9 hPa 0,0 mm - 0,0 km/h 0,0 km/h NO 0,0 W/qm 0,0 nein 01:25
01:30-4,8 °C 2,2 °C 2,8 °C 90 % 1024,7 hPa 0,0 mm - 0,0 km/h 0,0 km/h NO 0,0 W/qm 0,0 nein 01:30
01:35-4,8 °C 2,2 °C 2,8 °C 90 % 1024,7 hPa 0,0 mm - 0,0 km/h 0,0 km/h NO 0,0 W/qm 0,0 nein 01:35
01:40-4,9 °C 2,2 °C 2,8 °C 90 % 1024,7 hPa 0,0 mm - 0,0 km/h 0,0 km/h NO 0,0 W/qm 0,0 nein 01:40
01:45-5,0 °C 2,2 °C 2,8 °C 90 % 1024,8 hPa 0,0 mm - 0,0 km/h 0,0 km/h NO 0,0 W/qm 0,0 nein 01:45
01:50-5,1 °C 2,2 °C 2,8 °C 90 % 1024,8 hPa 0,0 mm - 0,0 km/h 0,0 km/h NO 0,0 W/qm 0,0 nein 01:50
01:55-5,1 °C 2,2 °C 2,8 °C 90 % 1024,8 hPa 0,0 mm - 0,0 km/h 0,0 km/h NO 0,0 W/qm 0,0 nein 01:55
UhrzeitTemperaturBoden 10cmBoden 20cmFeuchteLuftdruckNiederschlagEvapotranspirationWindWindböenWindrichtungSolarstrahlungUV-IndexSonne?Uhrzeit
02:00-5,2 °C 2,2 °C 2,8 °C 90 % 1024,9 hPa 0,0 mm - 0,0 km/h 0,0 km/h NO 0,0 W/qm 0,0 nein 02:00
02:05-5,2 °C 2,2 °C 2,8 °C 90 % 1024,8 hPa 0,0 mm 0,0 mm 0,0 km/h 0,0 km/h NO 0,0 W/qm 0,0 nein 02:05
02:10-5,3 °C 2,2 °C 2,8 °C 90 % 1024,8 hPa 0,0 mm 0,0 mm 0,0 km/h 0,0 km/h NO 0,0 W/qm 0,0 nein 02:10
02:15-5,4 °C 2,2 °C 2,8 °C 90 % 1024,8 hPa 0,0 mm - 0,0 km/h 0,0 km/h NO 0,0 W/qm 0,0 nein 02:15
02:20-5,5 °C 2,2 °C 2,8 °C 90 % 1024,8 hPa 0,0 mm - 0,0 km/h 0,0 km/h NO 0,0 W/qm 0,0 nein 02:20
02:25-5,5 °C 2,2 °C 2,8 °C 90 % 1024,7 hPa 0,0 mm - 0,0 km/h 0,0 km/h NO 0,0 W/qm 0,0 nein 02:25
02:30-5,5 °C 2,2 °C 2,8 °C 90 % 1024,7 hPa 0,0 mm - 0,0 km/h 0,0 km/h NO 0,0 W/qm 0,0 nein 02:30
02:35-5,7 °C 1,7 °C 2,8 °C 90 % 1024,7 hPa 0,0 mm - 0,0 km/h 0,0 km/h NO 0,0 W/qm 0,0 nein 02:35
02:40-5,6 °C 1,7 °C 2,8 °C 90 % 1024,8 hPa 0,0 mm - 0,0 km/h 0,0 km/h NO 0,0 W/qm 0,0 nein 02:40
02:45-5,7 °C 1,7 °C 2,8 °C 90 % 1024,7 hPa 0,0 mm - 0,0 km/h 0,0 km/h NO 0,0 W/qm 0,0 nein 02:45
02:50-5,7 °C 1,7 °C 2,8 °C 90 % 1024,7 hPa 0,0 mm - 0,0 km/h 0,0 km/h NO 0,0 W/qm 0,0 nein 02:50
02:55-5,7 °C 1,7 °C 2,8 °C 90 % 1024,6 hPa 0,0 mm - 0,0 km/h 0,0 km/h NO 0,0 W/qm 0,0 nein 02:55
03:00-5,7 °C 1,7 °C 2,8 °C 91 % 1024,6 hPa 0,0 mm - 0,0 km/h 0,0 km/h NO 0,0 W/qm 0,0 nein 03:00
03:05-5,7 °C 1,7 °C 2,8 °C 90 % 1024,5 hPa 0,0 mm 0,0 mm 0,0 km/h 0,0 km/h NO 0,0 W/qm 0,0 nein 03:05
03:10-5,8 °C 1,7 °C 2,8 °C 90 % 1024,5 hPa 0,0 mm 0,0 mm 0,0 km/h 0,0 km/h NO 0,0 W/qm 0,0 nein 03:10
03:15-5,9 °C 1,7 °C 2,8 °C 90 % 1024,5 hPa 0,0 mm - 0,0 km/h 0,0 km/h NO 0,0 W/qm 0,0 nein 03:15
03:20-5,8 °C 1,7 °C 2,8 °C 91 % 1024,6 hPa 0,0 mm - 0,0 km/h 0,0 km/h NO 0,0 W/qm 0,0 nein 03:20
03:25-5,9 °C 1,7 °C 2,8 °C 91 % 1024,6 hPa 0,0 mm - 0,0 km/h 0,0 km/h NO 0,0 W/qm 0,0 nein 03:25
03:30-6,0 °C 1,7 °C 2,8 °C 91 % 1024,6 hPa 0,0 mm - 0,0 km/h 0,0 km/h NO 0,0 W/qm 0,0 nein 03:30
03:35-6,0 °C 1,7 °C 2,8 °C 91 % 1024,7 hPa 0,0 mm - 0,0 km/h 0,0 km/h NO 0,0 W/qm 0,0 nein 03:35
03:40-6,0 °C 1,7 °C 2,8 °C 91 % 1024,7 hPa 0,0 mm - 0,0 km/h 0,0 km/h NO 0,0 W/qm 0,0 nein 03:40
03:45-6,1 °C 1,7 °C 2,8 °C 91 % 1024,6 hPa 0,0 mm - 0,0 km/h 0,0 km/h NO 0,0 W/qm 0,0 nein 03:45
03:50-6,1 °C 1,7 °C 2,8 °C 91 % 1024,6 hPa 0,0 mm - 0,0 km/h 0,0 km/h NO 0,0 W/qm 0,0 nein 03:50
03:55-6,1 °C 1,7 °C 2,8 °C 91 % 1024,4 hPa 0,0 mm - 0,0 km/h 0,0 km/h NO 0,0 W/qm 0,0 nein 03:55
UhrzeitTemperaturBoden 10cmBoden 20cmFeuchteLuftdruckNiederschlagEvapotranspirationWindWindböenWindrichtungSolarstrahlungUV-IndexSonne?Uhrzeit
04:00-6,1 °C 1,7 °C 2,8 °C 91 % 1024,6 hPa 0,0 mm - 0,0 km/h 0,0 km/h NO 0,0 W/qm 0,0 nein 04:00
04:05-6,1 °C 1,7 °C 2,8 °C 91 % 1024,6 hPa 0,0 mm 0,0 mm 0,0 km/h 0,0 km/h NO 0,0 W/qm 0,0 nein 04:05
04:10-6,2 °C 1,7 °C 2,8 °C 91 % 1024,7 hPa 0,0 mm 0,0 mm 0,0 km/h 0,0 km/h NO 0,0 W/qm 0,0 nein 04:10
04:15-6,1 °C 1,7 °C 2,8 °C 91 % 1024,7 hPa 0,0 mm - 0,0 km/h 0,0 km/h NO 0,0 W/qm 0,0 nein 04:15
04:20-6,0 °C 1,7 °C 2,8 °C 91 % 1024,7 hPa 0,0 mm - 0,0 km/h 0,0 km/h NO 0,0 W/qm 0,0 nein 04:20
04:25-5,9 °C 1,7 °C 2,8 °C 91 % 1024,7 hPa 0,0 mm - 0,0 km/h 0,0 km/h NO 0,0 W/qm 0,0 nein 04:25
04:30-5,8 °C 1,7 °C 2,8 °C 91 % 1024,7 hPa 0,0 mm - 0,0 km/h 0,0 km/h NO 0,0 W/qm 0,0 nein 04:30
04:35-5,8 °C 1,7 °C 2,8 °C 91 % 1024,6 hPa 0,0 mm - 0,0 km/h 0,0 km/h NO 0,0 W/qm 0,0 nein 04:35
04:40-5,8 °C 1,7 °C 2,8 °C 91 % 1024,7 hPa 0,0 mm - 0,0 km/h 0,0 km/h NO 0,0 W/qm 0,0 nein 04:40
04:45-5,9 °C 1,7 °C 2,8 °C 91 % 1024,6 hPa 0,0 mm - 0,0 km/h 0,0 km/h NO 0,0 W/qm 0,0 nein 04:45
04:50-5,8 °C 1,7 °C 2,8 °C 91 % 1024,6 hPa 0,0 mm - 0,0 km/h 0,0 km/h NO 0,0 W/qm 0,0 nein 04:50
04:55-5,7 °C 1,7 °C 2,8 °C 91 % 1024,7 hPa 0,0 mm - 0,0 km/h 0,0 km/h NO 0,0 W/qm 0,0 nein 04:55
05:00-5,7 °C 1,7 °C 2,8 °C 91 % 1024,7 hPa 0,0 mm - 0,0 km/h 0,0 km/h NO 0,0 W/qm 0,0 nein 05:00
05:05-5,8 °C 1,7 °C 2,8 °C 91 % 1024,7 hPa 0,0 mm 0,0 mm 0,0 km/h 0,0 km/h NO 0,0 W/qm 0,0 nein 05:05
05:10-5,8 °C 1,7 °C 2,8 °C 91 % 1024,7 hPa 0,0 mm 0,0 mm 0,0 km/h 0,0 km/h NO 0,0 W/qm 0,0 nein 05:10
05:15-5,9 °C 1,7 °C 2,8 °C 91 % 1024,7 hPa 0,0 mm - 0,0 km/h 0,0 km/h NO 0,0 W/qm 0,0 nein 05:15
05:20-5,8 °C 1,7 °C 2,8 °C 91 % 1024,8 hPa 0,0 mm - 0,0 km/h 0,0 km/h NO 0,0 W/qm 0,0 nein 05:20
05:25-5,7 °C 1,7 °C 2,8 °C 91 % 1024,8 hPa 0,0 mm - 0,0 km/h 0,0 km/h NO 0,0 W/qm 0,0 nein 05:25
05:30-5,8 °C 1,7 °C 2,8 °C 91 % 1024,7 hPa 0,0 mm - 0,0 km/h 0,0 km/h NO 0,0 W/qm 0,0 nein 05:30
05:35-5,8 °C 1,7 °C 2,8 °C 91 % 1024,7 hPa 0,0 mm - 0,0 km/h 0,0 km/h NO 0,0 W/qm 0,0 nein 05:35
05:40-5,9 °C 1,7 °C 2,8 °C 91 % 1024,7 hPa 0,0 mm - 0,0 km/h 0,0 km/h NO 0,0 W/qm 0,0 nein 05:40
05:45-5,8 °C 1,7 °C 2,8 °C 91 % 1024,9 hPa 0,0 mm - 0,0 km/h 0,0 km/h NO 0,0 W/qm 0,0 nein 05:45
05:50-5,7 °C 1,7 °C 2,8 °C 91 % 1024,9 hPa 0,0 mm - 0,0 km/h 0,0 km/h NO 0,0 W/qm 0,0 nein 05:50
05:55-5,6 °C 1,7 °C 2,8 °C 91 % 1024,9 hPa 0,0 mm - 0,0 km/h 0,0 km/h NO 0,0 W/qm 0,0 nein 05:55
UhrzeitTemperaturBoden 10cmBoden 20cmFeuchteLuftdruckNiederschlagEvapotranspirationWindWindböenWindrichtungSolarstrahlungUV-IndexSonne?Uhrzeit
06:00-5,5 °C 1,7 °C 2,8 °C 91 % 1024,9 hPa 0,0 mm - 0,0 km/h 0,0 km/h NO 0,0 W/qm 0,0 nein 06:00
06:05-5,4 °C 1,7 °C 2,8 °C 91 % 1024,9 hPa 0,0 mm 0,0 mm 0,0 km/h 0,0 km/h NO 0,0 W/qm 0,0 nein 06:05
06:10-5,4 °C 1,7 °C 2,8 °C 91 % 1025,0 hPa 0,0 mm 0,0 mm 0,0 km/h 0,0 km/h NO 0,0 W/qm 0,0 nein 06:10
06:15-5,2 °C 1,7 °C 2,8 °C 91 % 1025,1 hPa 0,0 mm - 0,0 km/h 0,0 km/h NO 0,0 W/qm 0,0 nein 06:15
06:20-5,1 °C 1,7 °C 2,8 °C 91 % 1025,1 hPa 0,0 mm - 0,0 km/h 0,0 km/h NO 0,0 W/qm 0,0 nein 06:20
06:25-5,1 °C 1,7 °C 2,8 °C 91 % 1025,0 hPa 0,0 mm - 0,0 km/h 0,0 km/h NO 0,0 W/qm 0,0 nein 06:25
06:30-5,1 °C 1,7 °C 2,8 °C 91 % 1025,1 hPa 0,0 mm - 0,0 km/h 0,0 km/h NO 0,0 W/qm 0,0 nein 06:30
06:35-5,1 °C 1,7 °C 2,8 °C 91 % 1025,0 hPa 0,0 mm - 0,0 km/h 0,0 km/h NO 0,0 W/qm 0,0 nein 06:35
06:40-5,3 °C 1,7 °C 2,8 °C 91 % 1025,2 hPa 0,0 mm - 0,0 km/h 0,0 km/h NO 0,0 W/qm 0,0 nein 06:40
06:45-5,3 °C 1,7 °C 2,8 °C 91 % 1025,2 hPa 0,0 mm - 0,0 km/h 0,0 km/h NO 0,0 W/qm 0,0 nein 06:45
06:50-5,4 °C 1,7 °C 2,8 °C 91 % 1025,3 hPa 0,0 mm - 0,0 km/h 0,0 km/h NO 5,0 W/qm 0,0 nein 06:50
06:55-5,5 °C 1,7 °C 2,8 °C 91 % 1025,3 hPa 0,0 mm - 0,0 km/h 0,0 km/h NO 7,0 W/qm 0,0 nein 06:55
07:00-5,5 °C 1,7 °C 2,8 °C 91 % 1025,4 hPa 0,0 mm - 0,0 km/h 0,0 km/h NO 9,0 W/qm 0,0 nein 07:00
07:05-5,6 °C 1,7 °C 2,8 °C 91 % 1025,5 hPa 0,0 mm 0,0 mm 0,0 km/h 0,0 km/h NO 11,0 W/qm 0,0 nein 07:05
07:10-5,6 °C 1,7 °C 2,8 °C 91 % 1025,4 hPa 0,0 mm 0,0 mm 0,0 km/h 0,0 km/h NO 14,0 W/qm 0,0 nein 07:10
07:15-5,6 °C 1,7 °C 2,8 °C 91 % 1025,5 hPa 0,0 mm - 0,0 km/h 0,0 km/h NO 16,0 W/qm 0,0 nein 07:15
07:20-5,4 °C 1,7 °C 2,8 °C 91 % 1025,5 hPa 0,0 mm - 0,0 km/h 0,0 km/h NO 21,0 W/qm 0,0 nein 07:20
07:25-5,3 °C 1,7 °C 2,8 °C 91 % 1025,4 hPa 0,0 mm - 0,0 km/h 0,0 km/h NO 23,0 W/qm 0,0 nein 07:25
07:30-5,2 °C 1,7 °C 2,8 °C 91 % 1025,5 hPa 0,0 mm - 0,0 km/h 0,0 km/h NO 26,0 W/qm 0,0 nein 07:30
07:35-5,0 °C 1,7 °C 2,8 °C 91 % 1025,5 hPa 0,0 mm - 0,0 km/h 0,0 km/h NO 32,0 W/qm 0,0 nein 07:35
07:40-4,9 °C 1,7 °C 2,8 °C 91 % 1025,5 hPa 0,0 mm - 0,0 km/h 0,0 km/h NO 35,0 W/qm 0,0 nein 07:40
07:45-4,8 °C 1,7 °C 2,8 °C 91 % 1025,5 hPa 0,0 mm - 0,0 km/h 0,0 km/h NO 40,0 W/qm 0,0 nein 07:45
07:50-4,6 °C 1,7 °C 2,8 °C 91 % 1025,4 hPa 0,0 mm - 0,0 km/h 0,0 km/h NO 47,0 W/qm 0,0 nein 07:50
07:55-4,6 °C 1,7 °C 2,8 °C 91 % 1025,4 hPa 0,0 mm - 0,0 km/h 0,0 km/h NO 62,0 W/qm 0,0 nein 07:55
UhrzeitTemperaturBoden 10cmBoden 20cmFeuchteLuftdruckNiederschlagEvapotranspirationWindWindböenWindrichtungSolarstrahlungUV-IndexSonne?Uhrzeit
08:00-4,4 °C 1,7 °C 2,8 °C 91 % 1025,4 hPa 0,0 mm - 0,0 km/h 0,0 km/h NO 81,0 W/qm 0,0 nein 08:00
08:05-4,2 °C 1,7 °C 2,8 °C 91 % 1025,3 hPa 0,0 mm 0,0 mm 0,0 km/h 0,0 km/h NO 84,0 W/qm 0,0 nein 08:05
08:10-4,2 °C 1,7 °C 2,8 °C 91 % 1025,4 hPa 0,0 mm 0,0 mm 0,0 km/h 0,0 km/h NO 88,0 W/qm 0,0 nein 08:10
08:15-4,0 °C 1,7 °C 2,8 °C 91 % 1025,3 hPa 0,0 mm - 0,0 km/h 0,0 km/h NO 84,0 W/qm 0,0 nein 08:15
08:20-3,9 °C 1,7 °C 2,8 °C 91 % 1025,3 hPa 0,0 mm - 0,0 km/h 0,0 km/h NO 91,0 W/qm 0,0 nein 08:20
08:25-3,7 °C 1,7 °C 2,8 °C 91 % 1025,2 hPa 0,0 mm - 0,0 km/h 0,0 km/h NO 95,0 W/qm 0,0 nein 08:25
08:30-3,6 °C 1,7 °C 2,8 °C 91 % 1025,2 hPa 0,0 mm - 0,0 km/h 0,0 km/h NO 113,0 W/qm 0,0 nein 08:30
08:35-3,4 °C 1,7 °C 2,8 °C 91 % 1025,1 hPa 0,0 mm - 0,0 km/h 0,0 km/h NO 123,0 W/qm 0,0 nein 08:35
08:40-3,2 °C 1,7 °C 2,8 °C 91 % 1025,2 hPa 0,0 mm - 0,0 km/h 0,0 km/h NO 125,0 W/qm 0,0 nein 08:40
08:45-2,9 °C 1,7 °C 2,8 °C 91 % 1025,1 hPa 0,0 mm - 0,0 km/h 0,0 km/h NO 135,0 W/qm 0,0 nein 08:45
08:50-2,7 °C 1,7 °C 2,8 °C 90 % 1025,1 hPa 0,0 mm - 0,0 km/h 0,0 km/h OSO 213,0 W/qm 0,0 ja 08:50
08:55-2,4 °C 1,7 °C 2,8 °C 90 % 1025,2 hPa 0,0 mm - 0,0 km/h 0,0 km/h OSO 227,0 W/qm 0,5 ja 08:55
09:00-2,2 °C 1,7 °C 2,8 °C 90 % 1025,2 hPa 0,0 mm - 1,4 km/h 3,2 km/h SO 352,0 W/qm 0,5 ja 09:00
09:05-2,0 °C 1,7 °C 2,8 °C 89 % 1025,1 hPa 0,0 mm 0,1 mm 0,0 km/h 3,2 km/h SO 221,0 W/qm 0,6 ja 09:05
09:10-1,7 °C 1,7 °C 2,8 °C 89 % 1025,1 hPa 0,0 mm 0,1 mm 0,0 km/h 3,2 km/h SSO 265,0 W/qm 0,6 ja 09:10
09:15-1,1 °C 1,7 °C 2,8 °C 88 % 1025,1 hPa 0,0 mm - 0,0 km/h 3,2 km/h SSO 292,0 W/qm 0,6 ja 09:15
09:20-0,9 °C 1,7 °C 2,8 °C 87 % 1025,1 hPa 0,0 mm - 0,0 km/h 1,4 km/h S 330,0 W/qm 0,7 ja 09:20
09:25-0,4 °C 1,7 °C 2,8 °C 85 % 1025,0 hPa 0,0 mm - 0,0 km/h 0,0 km/h SSO 397,0 W/qm 0,7 ja 09:25
09:30-0,1 °C 1,7 °C 2,8 °C 83 % 1024,9 hPa 0,0 mm - 3,2 km/h 9,7 km/h SSO 258,0 W/qm 0,7 ja 09:30
09:35-0,1 °C 1,7 °C 2,8 °C 82 % 1024,9 hPa 0,0 mm - 3,2 km/h 9,7 km/h NO 446,0 W/qm 0,8 ja 09:35
09:400,0 °C 1,7 °C 2,8 °C 81 % 1024,9 hPa 0,0 mm - 3,2 km/h 9,7 km/h SSO 443,0 W/qm 0,9 ja 09:40
09:450,5 °C 1,7 °C 2,8 °C 81 % 1024,8 hPa 0,0 mm - 3,2 km/h 9,7 km/h S 413,0 W/qm 0,9 ja 09:45
09:500,9 °C 1,7 °C 2,8 °C 79 % 1024,8 hPa 0,0 mm - 1,4 km/h 9,7 km/h SO 508,0 W/qm 1,0 ja 09:50
09:550,9 °C 1,7 °C 2,8 °C 77 % 1024,7 hPa 0,0 mm - 3,2 km/h 9,7 km/h S 519,0 W/qm 1,1 ja 09:55
UhrzeitTemperaturBoden 10cmBoden 20cmFeuchteLuftdruckNiederschlagEvapotranspirationWindWindböenWindrichtungSolarstrahlungUV-IndexSonne?Uhrzeit
10:001,0 °C 1,7 °C 2,8 °C 76 % 1024,7 hPa 0,0 mm - 4,7 km/h 9,7 km/h SSO 529,0 W/qm 1,1 ja 10:00
10:051,5 °C 1,7 °C 2,8 °C 75 % 1024,6 hPa 0,0 mm 0,2 mm 4,7 km/h 9,7 km/h S 552,0 W/qm 1,2 ja 10:05
10:101,9 °C 1,7 °C 2,8 °C 72 % 1024,5 hPa 0,0 mm 0,2 mm 4,7 km/h 9,7 km/h SSO 534,0 W/qm 1,2 ja 10:10
10:152,3 °C 1,7 °C 2,8 °C 72 % 1024,4 hPa 0,0 mm - 3,2 km/h 9,7 km/h S 538,0 W/qm 1,2 ja 10:15
10:202,4 °C 1,7 °C 2,8 °C 70 % 1024,4 hPa 0,0 mm - 4,7 km/h 9,7 km/h SSO 534,0 W/qm 1,3 ja 10:20
10:252,4 °C 1,7 °C 2,8 °C 69 % 1024,4 hPa 0,0 mm - 6,5 km/h 9,7 km/h S 508,0 W/qm 1,3 ja 10:25
10:302,9 °C 1,7 °C 2,8 °C 69 % 1024,4 hPa 0,0 mm - 4,7 km/h 9,7 km/h S 506,0 W/qm 1,3 ja 10:30
10:352,8 °C 1,7 °C 2,8 °C 66 % 1024,4 hPa 0,0 mm - 4,7 km/h 13,0 km/h S 504,0 W/qm 1,3 ja 10:35
10:402,7 °C 1,7 °C 2,8 °C 66 % 1024,4 hPa 0,0 mm - 4,7 km/h 13,0 km/h SO 508,0 W/qm 1,3 ja 10:40
10:452,6 °C 1,7 °C 2,8 °C 68 % 1024,4 hPa 0,0 mm - 3,2 km/h 11,2 km/h O 517,0 W/qm 1,4 ja 10:45
10:502,9 °C 1,7 °C 2,8 °C 65 % 1024,4 hPa 0,0 mm - 3,2 km/h 11,2 km/h SSO 531,0 W/qm 1,4 ja 10:50
10:553,0 °C 1,7 °C 2,8 °C 66 % 1024,3 hPa 0,0 mm - 4,7 km/h 11,2 km/h NO 534,0 W/qm 1,4 ja 10:55
11:003,4 °C 1,7 °C 2,8 °C 64 % 1024,2 hPa 0,0 mm - 3,2 km/h 11,2 km/h S 552,0 W/qm 1,5 ja 11:00
11:053,9 °C 1,7 °C 2,8 °C 63 % 1024,0 hPa 0,0 mm 0,4 mm 1,4 km/h 11,2 km/h NNO 661,0 W/qm 1,2 ja 11:05
11:103,3 °C 1,7 °C 2,8 °C 61 % 1024,0 hPa 0,0 mm 0,4 mm 4,7 km/h 11,2 km/h O 294,0 W/qm 1,1 ja 11:10
11:153,1 °C 1,7 °C 2,8 °C 63 % 1023,9 hPa 0,0 mm - 4,7 km/h 13,0 km/h OSO 255,0 W/qm 0,8 ja 11:15
11:203,0 °C 1,7 °C 2,8 °C 61 % 1024,0 hPa 0,0 mm - 1,4 km/h 13,0 km/h SSO 169,0 W/qm 0,6 nein 11:20
11:253,1 °C 1,7 °C 2,8 °C 60 % 1024,1 hPa 0,0 mm - 1,4 km/h 11,2 km/h S 185,0 W/qm 0,6 nein 11:25
11:303,2 °C 1,7 °C 2,8 °C 59 % 1024,0 hPa 0,0 mm - 1,4 km/h 9,7 km/h S 206,0 W/qm 0,7 nein 11:30
11:353,2 °C 1,7 °C 2,8 °C 59 % 1023,9 hPa 0,0 mm - 1,4 km/h 7,9 km/h S 260,0 W/qm 0,9 ja 11:35
11:403,3 °C 1,7 °C 2,8 °C 58 % 1023,9 hPa 0,0 mm - 1,4 km/h 7,9 km/h S 227,0 W/qm 0,9 ja 11:40
11:453,1 °C 1,7 °C 2,8 °C 64 % 1023,9 hPa 0,0 mm - 1,4 km/h 4,7 km/h NO 244,0 W/qm 0,9 ja 11:45
11:502,8 °C 1,7 °C 2,8 °C 66 % 1024,0 hPa 0,0 mm - 3,2 km/h 7,9 km/h ONO 232,0 W/qm 1,0 ja 11:50
11:552,7 °C 1,7 °C 2,8 °C 66 % 1023,9 hPa 0,0 mm - 3,2 km/h 7,9 km/h ONO 264,0 W/qm 1,0 ja 11:55
UhrzeitTemperaturBoden 10cmBoden 20cmFeuchteLuftdruckNiederschlagEvapotranspirationWindWindböenWindrichtungSolarstrahlungUV-IndexSonne?Uhrzeit
12:002,8 °C 1,7 °C 2,8 °C 67 % 1023,9 hPa 0,0 mm - 3,2 km/h 7,9 km/h NO 232,0 W/qm 1,0 ja 12:00
12:052,8 °C 1,7 °C 2,8 °C 66 % 1023,9 hPa 0,0 mm 0,5 mm 4,7 km/h 7,9 km/h N 220,0 W/qm 1,0 ja 12:05
12:102,9 °C 1,7 °C 2,8 °C 63 % 1023,8 hPa 0,0 mm 0,5 mm 4,7 km/h 7,9 km/h NO 244,0 W/qm 1,1 ja 12:10
12:153,3 °C 1,7 °C 2,8 °C 58 % 1023,7 hPa 0,0 mm - 6,5 km/h 7,9 km/h NO 274,0 W/qm 1,1 ja 12:15
12:203,6 °C 1,7 °C 2,8 °C 53 % 1023,6 hPa 0,0 mm - 6,5 km/h 14,4 km/h S 294,0 W/qm 1,1 ja 12:20
12:253,7 °C 1,7 °C 2,8 °C 51 % 1023,6 hPa 0,0 mm - 4,7 km/h 14,4 km/h ONO 323,0 W/qm 1,2 ja 12:25
12:303,7 °C 1,7 °C 2,8 °C 51 % 1023,6 hPa 0,0 mm - 4,7 km/h 14,4 km/h NNO 304,0 W/qm 1,1 ja 12:30
12:353,7 °C 1,7 °C 2,8 °C 52 % 1023,5 hPa 0,0 mm - 6,5 km/h 14,4 km/h O 360,0 W/qm 1,7 ja 12:35
12:404,1 °C 1,7 °C 2,8 °C 51 % 1023,4 hPa 0,0 mm - 6,5 km/h 14,4 km/h ONO 527,0 W/qm 1,4 ja 12:40
12:454,4 °C 1,7 °C 2,8 °C 51 % 1023,3 hPa 0,0 mm - 6,5 km/h 14,4 km/h ONO 330,0 W/qm 1,3 ja 12:45
12:504,2 °C 2,2 °C 2,8 °C 48 % 1023,4 hPa 0,0 mm - 7,9 km/h 17,6 km/h N 315,0 W/qm 1,3 ja 12:50
12:554,3 °C 2,2 °C 2,8 °C 47 % 1023,3 hPa 0,0 mm - 4,7 km/h 17,6 km/h NO 299,0 W/qm 1,3 ja 12:55
13:004,2 °C 2,2 °C 2,8 °C 52 % 1023,2 hPa 0,0 mm - 6,5 km/h 17,6 km/h NO 276,0 W/qm 1,2 ja 13:00
13:054,1 °C 2,2 °C 2,8 °C 50 % 1023,3 hPa 0,0 mm 0,6 mm 9,7 km/h 17,6 km/h NO 378,0 W/qm 1,2 ja 13:05
13:103,8 °C 2,2 °C 2,8 °C 49 % 1023,2 hPa 0,0 mm 0,6 mm 9,7 km/h 17,6 km/h NO 207,0 W/qm 1,0 nein 13:10
13:153,6 °C 2,2 °C 2,8 °C 50 % 1023,3 hPa 0,0 mm - 7,9 km/h 19,4 km/h SO 260,0 W/qm 1,1 ja 13:15
13:203,7 °C 2,2 °C 2,8 °C 50 % 1023,2 hPa 0,0 mm - 6,5 km/h 19,4 km/h S 295,0 W/qm 1,1 ja 13:20
13:253,9 °C 2,2 °C 2,8 °C 48 % 1023,2 hPa 0,0 mm - 4,7 km/h 16,2 km/h SSO 269,0 W/qm 1,0 ja 13:25
13:304,0 °C 2,2 °C 2,8 °C 48 % 1023,2 hPa 0,0 mm - 4,7 km/h 14,4 km/h S 258,0 W/qm 0,9 ja 13:30
13:353,9 °C 2,2 °C 2,8 °C 47 % 1023,2 hPa 0,0 mm - 4,7 km/h 14,4 km/h S 214,0 W/qm 0,8 ja 13:35
13:403,8 °C 2,2 °C 2,8 °C 49 % 1023,1 hPa 0,0 mm - 3,2 km/h 14,4 km/h ONO 213,0 W/qm 0,8 ja 13:40
13:453,9 °C 2,2 °C 2,8 °C 49 % 1023,1 hPa 0,0 mm - 4,7 km/h 14,4 km/h S 218,0 W/qm 0,8 ja 13:45
13:503,8 °C 2,2 °C 2,8 °C 49 % 1023,1 hPa 0,0 mm - 6,5 km/h 16,2 km/h SSO 221,0 W/qm 0,8 ja 13:50
13:553,7 °C 2,2 °C 2,8 °C 50 % 1023,1 hPa 0,0 mm - 6,5 km/h 16,2 km/h SSO 220,0 W/qm 0,8 ja 13:55
UhrzeitTemperaturBoden 10cmBoden 20cmFeuchteLuftdruckNiederschlagEvapotranspirationWindWindböenWindrichtungSolarstrahlungUV-IndexSonne?Uhrzeit
14:003,6 °C 2,2 °C 2,8 °C 49 % 1023,2 hPa 0,0 mm - 4,7 km/h 16,2 km/h S 199,0 W/qm 0,7 nein 14:00
14:053,6 °C 2,2 °C 2,8 °C 49 % 1023,1 hPa 0,0 mm 0,8 mm 4,7 km/h 16,2 km/h SO 192,0 W/qm 0,7 nein 14:05
14:103,6 °C 2,2 °C 2,8 °C 49 % 1023,2 hPa 0,0 mm 0,8 mm 4,7 km/h 17,6 km/h S 179,0 W/qm 0,6 nein 14:10
14:153,6 °C 2,2 °C 2,8 °C 49 % 1023,2 hPa 0,0 mm - 4,7 km/h 17,6 km/h ONO 193,0 W/qm 0,7 nein 14:15
14:203,6 °C 2,2 °C 2,8 °C 50 % 1023,1 hPa 0,0 mm - 4,7 km/h 17,6 km/h ONO 229,0 W/qm 0,8 ja 14:20
14:253,6 °C 2,2 °C 2,8 °C 51 % 1023,2 hPa 0,0 mm - 4,7 km/h 14,4 km/h NNO 241,0 W/qm 0,8 ja 14:25
14:303,7 °C 2,2 °C 2,8 °C 50 % 1023,0 hPa 0,0 mm - 4,7 km/h 13,0 km/h O 214,0 W/qm 0,7 ja 14:30
14:353,7 °C 2,2 °C 2,8 °C 51 % 1022,9 hPa 0,0 mm - 3,2 km/h 14,4 km/h S 186,0 W/qm 0,6 nein 14:35
14:403,6 °C 2,2 °C 2,8 °C 51 % 1022,9 hPa 0,0 mm - 4,7 km/h 14,4 km/h NNO 185,0 W/qm 0,6 nein 14:40
14:453,5 °C 2,2 °C 2,8 °C 52 % 1022,9 hPa 0,0 mm - 6,5 km/h 13,0 km/h NNO 181,0 W/qm 0,6 nein 14:45
14:503,4 °C 2,2 °C 2,8 °C 52 % 1022,8 hPa 0,0 mm - 9,7 km/h 17,6 km/h NNO 174,0 W/qm 0,6 nein 14:50
14:553,4 °C 2,2 °C 2,8 °C 51 % 1022,9 hPa 0,0 mm - 7,9 km/h 17,6 km/h SSO 172,0 W/qm 0,6 nein 14:55
15:003,4 °C 2,2 °C 2,8 °C 50 % 1023,0 hPa 0,0 mm - 6,5 km/h 17,6 km/h NO 162,0 W/qm 0,5 nein 15:00
15:053,4 °C 2,2 °C 2,8 °C 51 % 1022,9 hPa 0,0 mm 0,9 mm 6,5 km/h 17,6 km/h SSO 167,0 W/qm 0,6 nein 15:05
15:103,4 °C 2,2 °C 2,8 °C 50 % 1022,9 hPa 0,0 mm 0,9 mm 6,5 km/h 20,9 km/h NO 163,0 W/qm 0,5 nein 15:10
15:153,4 °C 2,2 °C 2,8 °C 51 % 1022,9 hPa 0,0 mm - 6,5 km/h 20,9 km/h NO 158,0 W/qm 0,5 nein 15:15
15:203,4 °C 2,2 °C 2,8 °C 50 % 1022,9 hPa 0,0 mm - 7,9 km/h 20,9 km/h NNO 160,0 W/qm 0,5 nein 15:20
15:253,3 °C 2,2 °C 2,8 °C 51 % 1022,9 hPa 0,0 mm - 7,9 km/h 17,6 km/h ONO 156,0 W/qm 0,5 nein 15:25
15:303,4 °C 2,2 °C 2,8 °C 52 % 1022,8 hPa 0,0 mm - 7,9 km/h 17,6 km/h ONO 144,0 W/qm 0,5 nein 15:30
15:353,4 °C 2,2 °C 2,8 °C 52 % 1022,8 hPa 0,0 mm - 6,5 km/h 16,2 km/h ONO 148,0 W/qm 0,5 nein 15:35
15:403,4 °C 2,2 °C 2,8 °C 51 % 1022,8 hPa 0,0 mm - 6,5 km/h 16,2 km/h NNO 151,0 W/qm 0,0 nein 15:40
15:453,3 °C 2,2 °C 2,8 °C 49 % 1022,9 hPa 0,0 mm - 4,7 km/h 16,2 km/h SSO 135,0 W/qm 0,0 nein 15:45
15:503,4 °C 2,2 °C 2,8 °C 49 % 1022,9 hPa 0,0 mm - 3,2 km/h 16,2 km/h SSO 120,0 W/qm 0,0 nein 15:50
15:553,3 °C 2,2 °C 2,8 °C 50 % 1022,9 hPa 0,0 mm - 3,2 km/h 13,0 km/h OSO 120,0 W/qm 0,0 nein 15:55
UhrzeitTemperaturBoden 10cmBoden 20cmFeuchteLuftdruckNiederschlagEvapotranspirationWindWindböenWindrichtungSolarstrahlungUV-IndexSonne?Uhrzeit
16:003,3 °C 2,2 °C 2,8 °C 52 % 1022,9 hPa 0,0 mm - 3,2 km/h 11,2 km/h NO 109,0 W/qm 0,0 nein 16:00
16:053,2 °C 2,8 °C 2,8 °C 51 % 1022,9 hPa 0,0 mm 0,9 mm 4,7 km/h 11,2 km/h NNO 105,0 W/qm 0,0 nein 16:05
16:103,1 °C 2,8 °C 2,8 °C 52 % 1022,9 hPa 0,0 mm 0,9 mm 4,7 km/h 14,4 km/h ONO 98,0 W/qm 0,0 nein 16:10
16:153,1 °C 2,8 °C 2,8 °C 51 % 1022,8 hPa 0,0 mm - 3,2 km/h 14,4 km/h ONO 91,0 W/qm 0,0 nein 16:15
16:203,1 °C 2,8 °C 2,8 °C 50 % 1022,8 hPa 0,0 mm - 3,2 km/h 14,4 km/h NNO 93,0 W/qm 0,0 nein 16:20
16:253,1 °C 2,8 °C 2,8 °C 49 % 1022,7 hPa 0,0 mm - 1,4 km/h 13,0 km/h S 91,0 W/qm 0,0 nein 16:25
16:303,1 °C 2,8 °C 2,8 °C 51 % 1022,8 hPa 0,0 mm - 1,4 km/h 9,7 km/h NO 86,0 W/qm 0,0 nein 16:30
16:353,1 °C 2,8 °C 2,8 °C 51 % 1022,8 hPa 0,0 mm - 4,7 km/h 9,7 km/h N 77,0 W/qm 0,0 nein 16:35
16:403,0 °C 2,8 °C 2,8 °C 51 % 1022,8 hPa 0,0 mm - 6,5 km/h 13,0 km/h NO 70,0 W/qm 0,0 nein 16:40
16:452,9 °C 2,8 °C 2,8 °C 53 % 1022,8 hPa 0,0 mm - 6,5 km/h 13,0 km/h NO 62,0 W/qm 0,0 nein 16:45
16:502,9 °C 2,8 °C 2,8 °C 53 % 1022,8 hPa 0,0 mm - 7,9 km/h 13,0 km/h ONO 49,0 W/qm 0,0 nein 16:50
16:552,8 °C 2,8 °C 2,8 °C 52 % 1023,0 hPa 0,0 mm - 7,9 km/h 16,2 km/h NNO 44,0 W/qm 0,0 nein 16:55
17:002,7 °C 2,8 °C 2,8 °C 53 % 1023,0 hPa 0,0 mm - 7,9 km/h 16,2 km/h NO 40,0 W/qm 0,0 nein 17:00
17:052,6 °C 2,8 °C 2,8 °C 54 % 1022,9 hPa 0,0 mm 1,0 mm 6,5 km/h 16,2 km/h ONO 39,0 W/qm 0,0 nein 17:05
17:102,6 °C 2,8 °C 2,8 °C 54 % 1023,0 hPa 0,0 mm 1,0 mm 4,7 km/h 14,4 km/h N 37,0 W/qm 0,0 nein 17:10
17:152,6 °C 2,8 °C 2,8 °C 52 % 1023,0 hPa 0,0 mm - 4,7 km/h 14,4 km/h NNO 37,0 W/qm 0,0 nein 17:15
17:202,6 °C 2,8 °C 2,8 °C 52 % 1023,0 hPa 0,0 mm - 3,2 km/h 13,0 km/h SO 33,0 W/qm 0,0 nein 17:20
17:252,5 °C 2,8 °C 2,8 °C 52 % 1023,0 hPa 0,0 mm - 1,4 km/h 13,0 km/h NO 33,0 W/qm 0,0 nein 17:25
17:302,4 °C 2,8 °C 2,8 °C 51 % 1022,9 hPa 0,0 mm - 3,2 km/h 7,9 km/h NO 32,0 W/qm 0,0 nein 17:30
17:352,4 °C 2,8 °C 2,8 °C 51 % 1023,0 hPa 0,0 mm - 3,2 km/h 9,7 km/h ONO 21,0 W/qm 0,0 nein 17:35
17:402,4 °C 2,8 °C 2,8 °C 52 % 1023,0 hPa 0,0 mm - 1,4 km/h 9,7 km/h ONO 16,0 W/qm 0,0 nein 17:40
17:452,3 °C 2,8 °C 2,8 °C 53 % 1023,0 hPa 0,0 mm - 1,4 km/h 9,7 km/h ONO 12,0 W/qm 0,0 nein 17:45
17:502,3 °C 2,8 °C 2,8 °C 53 % 1023,0 hPa 0,0 mm - 4,7 km/h 7,9 km/h NO 9,0 W/qm 0,0 nein 17:50
17:552,3 °C 2,8 °C 2,8 °C 53 % 1023,0 hPa 0,0 mm - 4,7 km/h 11,2 km/h ONO 7,0 W/qm 0,0 nein 17:55
UhrzeitTemperaturBoden 10cmBoden 20cmFeuchteLuftdruckNiederschlagEvapotranspirationWindWindböenWindrichtungSolarstrahlungUV-IndexSonne?Uhrzeit
18:002,2 °C 2,8 °C 2,8 °C 54 % 1022,9 hPa 0,0 mm - 4,7 km/h 11,2 km/h O 5,0 W/qm 0,0 nein 18:00
18:052,2 °C 2,8 °C 2,8 °C 53 % 1022,9 hPa 0,0 mm 1,0 mm 4,7 km/h 11,2 km/h NO 0,0 W/qm 0,0 nein 18:05
18:102,1 °C 2,8 °C 2,8 °C 55 % 1023,0 hPa 0,0 mm 1,0 mm 3,2 km/h 11,2 km/h NO 0,0 W/qm 0,0 nein 18:10
18:152,0 °C 2,8 °C 2,8 °C 55 % 1023,1 hPa 0,0 mm - 3,2 km/h 11,2 km/h NO 0,0 W/qm 0,0 nein 18:15
18:201,9 °C 2,8 °C 2,8 °C 55 % 1023,1 hPa 0,0 mm - 3,2 km/h 11,2 km/h NO 0,0 W/qm 0,0 nein 18:20
18:251,8 °C 2,8 °C 2,8 °C 57 % 1023,2 hPa 0,0 mm - 1,4 km/h 7,9 km/h NO 0,0 W/qm 0,0 nein 18:25
18:301,8 °C 2,8 °C 2,8 °C 57 % 1023,3 hPa 0,0 mm - 1,4 km/h 6,5 km/h NNO 0,0 W/qm 0,0 nein 18:30
18:351,8 °C 2,8 °C 2,8 °C 55 % 1023,3 hPa 0,0 mm - 1,4 km/h 6,5 km/h NNO 0,0 W/qm 0,0 nein 18:35
18:401,8 °C 2,8 °C 2,8 °C 56 % 1023,3 hPa 0,0 mm - 3,2 km/h 6,5 km/h NO 0,0 W/qm 0,0 nein 18:40
18:451,9 °C 2,8 °C 2,8 °C 56 % 1023,3 hPa 0,0 mm - 3,2 km/h 9,7 km/h NO 0,0 W/qm 0,0 nein 18:45
18:501,8 °C 2,8 °C 2,8 °C 56 % 1023,3 hPa 0,0 mm - 3,2 km/h 9,7 km/h ONO 0,0 W/qm 0,0 nein 18:50
18:551,8 °C 2,8 °C 2,8 °C 56 % 1023,3 hPa 0,0 mm - 3,2 km/h 9,7 km/h NNO 0,0 W/qm 0,0 nein 18:55
19:001,7 °C 2,8 °C 2,8 °C 56 % 1023,3 hPa 0,0 mm - 1,4 km/h 6,5 km/h NO 0,0 W/qm 0,0 nein 19:00
19:051,7 °C 2,8 °C 2,8 °C 56 % 1023,3 hPa 0,0 mm 1,0 mm 1,4 km/h 6,5 km/h NO 0,0 W/qm 0,0 nein 19:05
19:101,6 °C 2,8 °C 2,8 °C 57 % 1023,3 hPa 0,0 mm 1,0 mm 1,4 km/h 6,5 km/h O 0,0 W/qm 0,0 nein 19:10
19:151,5 °C 2,8 °C 2,8 °C 58 % 1023,4 hPa 0,0 mm - 1,4 km/h 6,5 km/h NO 0,0 W/qm 0,0 nein 19:15
19:201,4 °C 2,8 °C 2,8 °C 59 % 1023,5 hPa 0,0 mm - 1,4 km/h 6,5 km/h NO 0,0 W/qm 0,0 nein 19:20
19:251,3 °C 2,8 °C 2,8 °C 60 % 1023,5 hPa 0,0 mm - 1,4 km/h 4,7 km/h NW 0,0 W/qm 0,0 nein 19:25
19:301,3 °C 2,8 °C 2,8 °C 60 % 1023,5 hPa 0,0 mm - 1,4 km/h 4,7 km/h ONO 0,0 W/qm 0,0 nein 19:30
19:351,3 °C 2,8 °C 2,8 °C 60 % 1023,5 hPa 0,0 mm - 1,4 km/h 4,7 km/h ONO 0,0 W/qm 0,0 nein 19:35
19:401,1 °C 2,8 °C 2,8 °C 62 % 1023,5 hPa 0,0 mm - 0,0 km/h 4,7 km/h ONO 0,0 W/qm 0,0 nein 19:40
19:451,2 °C 2,8 °C 2,8 °C 62 % 1023,5 hPa 0,0 mm - 1,4 km/h 3,2 km/h NO 0,0 W/qm 0,0 nein 19:45
19:501,3 °C 2,8 °C 2,8 °C 61 % 1023,5 hPa 0,0 mm - 3,2 km/h 4,7 km/h NO 0,0 W/qm 0,0 nein 19:50
19:551,4 °C 2,8 °C 2,8 °C 61 % 1023,6 hPa 0,0 mm - 3,2 km/h 7,9 km/h NO 0,0 W/qm 0,0 nein 19:55
UhrzeitTemperaturBoden 10cmBoden 20cmFeuchteLuftdruckNiederschlagEvapotranspirationWindWindböenWindrichtungSolarstrahlungUV-IndexSonne?Uhrzeit
20:001,4 °C 2,8 °C 2,8 °C 61 % 1023,6 hPa 0,0 mm - 4,7 km/h 9,7 km/h NO 0,0 W/qm 0,0 nein 20:00
20:051,6 °C 2,8 °C 2,8 °C 60 % 1023,6 hPa 0,0 mm 1,0 mm 4,7 km/h 9,7 km/h NNO 0,0 W/qm 0,0 nein 20:05
20:101,6 °C 2,8 °C 2,8 °C 61 % 1023,6 hPa 0,0 mm 1,0 mm 4,7 km/h 9,7 km/h NO 0,0 W/qm 0,0 nein 20:10
20:151,6 °C 2,8 °C 2,8 °C 62 % 1023,6 hPa 0,0 mm - 6,5 km/h 11,2 km/h NO 0,0 W/qm 0,0 nein 20:15
20:201,6 °C 2,8 °C 2,8 °C 62 % 1023,6 hPa 0,0 mm - 4,7 km/h 13,0 km/h NNO 0,0 W/qm 0,0 nein 20:20
20:251,4 °C 2,8 °C 2,8 °C 63 % 1023,6 hPa 0,0 mm - 3,2 km/h 13,0 km/h N 0,0 W/qm 0,0 nein 20:25
20:301,4 °C 2,8 °C 2,8 °C 63 % 1023,7 hPa 0,0 mm - 3,2 km/h 13,0 km/h N 0,0 W/qm 0,0 nein 20:30
20:351,4 °C 2,8 °C 2,8 °C 64 % 1023,7 hPa 0,0 mm - 3,2 km/h 11,2 km/h NO 0,0 W/qm 0,0 nein 20:35
20:401,3 °C 2,8 °C 2,8 °C 64 % 1023,7 hPa 0,0 mm - 3,2 km/h 7,9 km/h O 0,0 W/qm 0,0 nein 20:40
20:451,3 °C 2,8 °C 2,8 °C 64 % 1023,7 hPa 0,0 mm - 1,4 km/h 7,9 km/h ONO 0,0 W/qm 0,0 nein 20:45
20:501,3 °C 2,8 °C 2,8 °C 65 % 1023,8 hPa 0,0 mm - 1,4 km/h 7,9 km/h ONO 0,0 W/qm 0,0 nein 20:50
20:551,3 °C 2,8 °C 2,8 °C 66 % 1023,8 hPa 0,0 mm - 1,4 km/h 6,5 km/h NNO 0,0 W/qm 0,0 nein 20:55
21:001,1 °C 2,8 °C 2,8 °C 67 % 1023,8 hPa 0,0 mm - 1,4 km/h 6,5 km/h NNO 0,0 W/qm 0,0 nein 21:00
21:051,1 °C 2,8 °C 2,8 °C 68 % 1023,8 hPa 0,0 mm 1,1 mm 1,4 km/h 6,5 km/h ONO 0,0 W/qm 0,0 nein 21:05
21:101,0 °C 2,8 °C 2,8 °C 67 % 1023,8 hPa 0,0 mm 1,1 mm 1,4 km/h 6,5 km/h ONO 0,0 W/qm 0,0 nein 21:10
21:151,0 °C 2,8 °C 2,8 °C 69 % 1023,8 hPa 0,0 mm - 0,0 km/h 7,9 km/h NO 0,0 W/qm 0,0 nein 21:15
21:201,0 °C 2,8 °C 2,8 °C 69 % 1023,8 hPa 0,0 mm - 0,0 km/h 7,9 km/h ONO 0,0 W/qm 0,0 nein 21:20
21:251,0 °C 2,8 °C 2,8 °C 69 % 1023,8 hPa 0,0 mm - 0,0 km/h 3,2 km/h ONO 0,0 W/qm 0,0 nein 21:25
21:301,0 °C 2,8 °C 2,8 °C 69 % 1023,8 hPa 0,0 mm - 0,0 km/h 6,5 km/h NO 0,0 W/qm 0,0 nein 21:30
21:350,9 °C 2,8 °C 2,8 °C 70 % 1024,0 hPa 0,0 mm - 0,0 km/h 6,5 km/h NO 0,0 W/qm 0,0 nein 21:35
21:400,8 °C 2,2 °C 2,8 °C 70 % 1024,0 hPa 0,0 mm - 0,0 km/h 6,5 km/h NO 0,0 W/qm 0,0 nein 21:40
21:450,7 °C 2,2 °C 2,8 °C 71 % 1024,0 hPa 0,0 mm - 0,0 km/h 0,0 km/h NO 0,0 W/qm 0,0 nein 21:45
21:500,6 °C 2,2 °C 2,8 °C 72 % 1024,0 hPa 0,0 mm - 0,0 km/h 0,0 km/h NO 0,0 W/qm 0,0 nein 21:50
21:550,7 °C 2,2 °C 2,8 °C 72 % 1024,0 hPa 0,0 mm - 0,0 km/h 0,0 km/h NNO 0,0 W/qm 0,0 nein 21:55
UhrzeitTemperaturBoden 10cmBoden 20cmFeuchteLuftdruckNiederschlagEvapotranspirationWindWindböenWindrichtungSolarstrahlungUV-IndexSonne?Uhrzeit
22:000,8 °C 2,2 °C 2,8 °C 71 % 1024,0 hPa 0,0 mm - 1,4 km/h 4,7 km/h ONO 0,0 W/qm 0,0 nein 22:00
22:050,8 °C 2,2 °C 2,8 °C 71 % 1024,0 hPa 0,0 mm 1,1 mm 1,4 km/h 6,5 km/h N 0,0 W/qm 0,0 nein 22:05
22:100,8 °C 2,2 °C 2,8 °C 71 % 1024,0 hPa 0,0 mm 1,1 mm 1,4 km/h 6,5 km/h NNO 0,0 W/qm 0,0 nein 22:10
22:150,6 °C 2,2 °C 2,8 °C 72 % 1024,0 hPa 0,0 mm - 0,0 km/h 6,5 km/h NNO 0,0 W/qm 0,0 nein 22:15
22:200,5 °C 2,2 °C 2,8 °C 72 % 1023,9 hPa 0,0 mm - 0,0 km/h 4,7 km/h NO 0,0 W/qm 0,0 nein 22:20
22:250,5 °C 2,2 °C 2,8 °C 72 % 1024,0 hPa 0,0 mm - 0,0 km/h 4,7 km/h NO 0,0 W/qm 0,0 nein 22:25
22:300,4 °C 2,2 °C 2,8 °C 73 % 1023,9 hPa 0,0 mm - 0,0 km/h 4,7 km/h NNO 0,0 W/qm 0,0 nein 22:30
22:350,4 °C 2,2 °C 2,8 °C 73 % 1024,0 hPa 0,0 mm - 1,4 km/h 4,7 km/h NO 0,0 W/qm 0,0 nein 22:35
22:400,5 °C 2,2 °C 2,8 °C 72 % 1024,0 hPa 0,0 mm - 1,4 km/h 6,5 km/h NO 0,0 W/qm 0,0 nein 22:40
22:450,3 °C 2,2 °C 2,8 °C 73 % 1024,0 hPa 0,0 mm - 1,4 km/h 6,5 km/h NO 0,0 W/qm 0,0 nein 22:45
22:500,1 °C 2,2 °C 2,8 °C 74 % 1024,1 hPa 0,0 mm - 0,0 km/h 6,5 km/h NO 0,0 W/qm 0,0 nein 22:50
22:550,1 °C 2,2 °C 2,8 °C 74 % 1024,1 hPa 0,0 mm - 0,0 km/h 6,5 km/h NO 0,0 W/qm 0,0 nein 22:55
23:000,0 °C 2,2 °C 2,8 °C 75 % 1024,1 hPa 0,0 mm - 0,0 km/h 3,2 km/h NO 0,0 W/qm 0,0 nein 23:00
23:05-0,1 °C 2,2 °C 2,8 °C 75 % 1024,1 hPa 0,0 mm 1,1 mm 0,0 km/h 3,2 km/h NO 0,0 W/qm 0,0 nein 23:05
23:10-0,2 °C 2,2 °C 2,8 °C 75 % 1024,0 hPa 0,0 mm 1,1 mm 0,0 km/h 3,2 km/h NO 0,0 W/qm 0,0 nein 23:10
23:15-0,2 °C 2,2 °C 2,8 °C 75 % 1023,9 hPa 0,0 mm - 0,0 km/h 1,4 km/h NO 0,0 W/qm 0,0 nein 23:15
23:20-0,2 °C 2,2 °C 2,8 °C 76 % 1024,0 hPa 0,0 mm - 0,0 km/h 0,0 km/h NO 0,0 W/qm 0,0 nein 23:20
23:25-0,2 °C 2,2 °C 2,8 °C 76 % 1023,9 hPa 0,0 mm - 0,0 km/h 0,0 km/h NO 0,0 W/qm 0,0 nein 23:25
23:30-0,3 °C 2,2 °C 2,8 °C 76 % 1023,9 hPa 0,0 mm - 0,0 km/h 1,4 km/h NO 0,0 W/qm 0,0 nein 23:30
23:35-0,4 °C 2,2 °C 2,8 °C 77 % 1023,8 hPa 0,0 mm - 0,0 km/h 1,4 km/h NO 0,0 W/qm 0,0 nein 23:35
23:40-0,5 °C 2,2 °C 2,8 °C 78 % 1023,9 hPa 0,0 mm - 0,0 km/h 1,4 km/h NO 0,0 W/qm 0,0 nein 23:40
23:45-0,6 °C 2,2 °C 2,8 °C 79 % 1023,9 hPa 0,0 mm - 0,0 km/h 0,0 km/h NO 0,0 W/qm 0,0 nein 23:45
23:50-0,6 °C 2,2 °C 2,8 °C 79 % 1023,8 hPa 0,0 mm - 0,0 km/h 3,2 km/h NO 0,0 W/qm 0,0 nein 23:50
23:55-0,6 °C 2,2 °C 2,8 °C 80 % 1023,8 hPa 0,0 mm - 0,0 km/h 3,2 km/h NO 0,0 W/qm 0,0 nein 23:55
Gesamt: -0,7 °C 2,1 °C 2,8 °C 72 % 1024,1 hPa 0,0 mm 23,2 mm 2,1 km/h 6,3 km/h 0 98,2 W/qm 0,3 ja

Insgesamt 288 Zeilen mal 13 Spalten = 3744 Werte werden angezeigt.

www.wetter-rosstal.de   •   www.wetter-franken.de   •   www.lightningmaps.org   •   Start   •   Kontakt / Datenschutz   •   PC-Kümmerer